Date,TemperatureHighF,TemperatureAvgF,TemperatureLowF,DewpointHighF,DewpointAvgF,DewpointLowF,HumidityHigh,HumidityAvg,HumidityLow,PressureMaxIn,PressureMinIn,WindSpeedMaxMPH,WindSpeedAvgMPH,GustSpeedMaxMPH,PrecipitationSumIn
2012-1-1,77.7,57.2,34.5,32.0,32.0,32.0,50,23,8,27.55,27.46,9,3,11,0.00
2012-1-2,76.3,65.5,55.2,32.0,32.0,32.0,11,10,8,27.61,27.49,9,5,12,0.00
2012-1-3,75.0,56.1,40.5,32.0,32.0,32.0,28,13,8,27.61,27.46,3,0,4,0.00
2012-1-4,74.5,54.3,36.1,32.0,32.0,32.0,41,21,8,27.61,27.49,9,2,13,0.00
2012-1-5,72.9,54.0,37.9,32.0,32.0,32.0,21,12,9,27.55,27.32,6,0,8,0.00
2012-1-6,69.8,48.1,32.5,32.0,32.0,32.0,40,20,9,27.37,27.26,4,0,4,0.00
2012-1-7,70.5,50.5,33.3,32.0,32.0,32.0,40,19,9,27.32,27.17,5,1,7,0.00
2012-1-8,58.1,45.5,32.5,32.0,32.0,32.0,40,19,9,27.37,27.23,6,1,8,0.00
2012-1-9,61.2,44.4,30.4,32.0,32.0,32.0,42,24,9,27.52,17.72,6,1,8,0.00
2012-1-10,65.3,45.7,31.1,32.0,32.0,32.0,42,23,9,17.72,17.72,4,0,4,0.00
2012-1-11,63.5,45.3,32.2,32.0,32.0,32.0,40,23,9,17.72,17.72,4,0,6,0.00
2012-1-12,63.5,47.1,36.1,32.0,32.0,32.0,34,20,9,17.72,17.72,5,0,6,0.00
2012-1-13,66.2,48.7,30.0,32.0,32.0,32.0,41,19,9,17.72,17.72,10,2,14,0.00
2012-1-14,70.3,50.7,30.4,32.0,32.0,32.0,18,12,9,17.72,17.72,5,1,7,0.00
2012-1-15,67.1,55.3,47.7,41.0,32.6,32.0,58,22,10,17.72,17.72,8,0,8,0.32
2012-1-16,61.0,54.1,46.0,45.0,36.5,32.0,66,50,24,17.72,17.72,5,0,8,0.04
2012-1-17,63.5,50.4,40.6,36.0,32.1,32.0,58,37,11,17.72,17.72,4,0,5,0.00
2012-1-18,66.2,47.8,34.7,32.0,32.0,32.0,54,32,10,17.72,17.72,4,0,6,0.00
2012-1-19,68.9,47.9,32.9,32.0,32.0,32.0,50,28,9,17.72,17.72,4,0,5,0.00
2012-1-20,70.5,48.0,31.8,32.0,32.0,32.0,45,26,9,17.72,17.72,4,0,6,0.00
2012-1-21,71.4,53.1,35.6,32.0,32.0,32.0,42,22,9,17.72,17.72,6,1,10,0.00
2012-1-22,61.7,51.3,39.7,32.0,32.0,32.0,33,16,9,17.72,17.72,8,1,8,0.00
2012-1-23,67.6,49.4,32.2,32.0,32.0,32.0,42,20,9,17.72,17.72,4,0,5,0.00
2012-1-24,61.0,52.0,41.5,32.0,32.0,32.0,38,17,10,17.72,17.72,9,2,11,0.00
2012-1-25,64.2,47.4,33.8,32.0,32.0,32.0,48,27,10,17.72,17.72,5,1,8,0.00
2012-1-26,71.1,49.7,33.4,32.0,32.0,32.0,45,24,9,17.72,17.72,5,0,5,0.00
2012-1-27,71.4,52.1,34.9,32.0,32.0,32.0,42,22,9,17.72,17.72,4,0,6,0.00
2012-1-28,72.1,57.0,40.8,32.0,32.0,32.0,43,21,9,17.72,17.72,9,2,13,0.00
2012-1-29,74.3,61.5,46.2,32.0,32.0,32.0,15,10,8,17.72,17.72,8,2,11,0.00
2012-1-30,73.2,53.1,37.0,32.0,32.0,32.0,32,16,9,17.72,17.72,8,1,10,0.00
2012-1-31,72.0,52.5,39.6,32.0,32.0,32.0,28,14,9,17.72,17.72,7,1,8,0.00
2012-2-1,71.8,51.0,34.3,32.0,32.0,32.0,34,17,9,17.72,17.72,5,0,6,0.00
2012-2-2,65.8,48.2,32.5,32.0,32.0,32.0,31,16,9,17.72,17.72,11,2,13,0.00
2012-2-3,63.0,45.7,30.2,32.0,32.0,32.0,30,14,9,17.72,17.72,5,1,6,0.00
2012-2-4,67.3,45.6,30.0,32.0,32.0,32.0,34,18,9,17.72,17.72,5,1,8,0.00
2012-2-5,69.8,49.4,32.2,32.0,32.0,32.0,35,18,9,17.72,17.72,7,1,13,0.00
2012-2-6,67.5,49.1,33.6,32.0,32.0,32.0,35,18,9,17.72,17.72,6,1,8,0.00
2012-2-7,74.1,55.2,36.1,32.0,32.0,32.0,30,15,8,0.00,40.00,7,1,8,0.00
2012-2-8,70.2,57.8,48.0,32.0,32.0,32.0,19,12,9,0.00,40.00,9,1,10,0.00
2012-2-9,72.5,54.8,40.3,32.0,32.0,32.0,40,20,9,17.72,17.72,10,1,13,0.00
2012-2-10,73.9,55.0,38.5,32.0,32.0,32.0,34,16,8,17.72,17.72,6,1,6,0.00
2012-2-11,78.3,56.8,37.6,32.0,32.0,32.0,29,14,8,17.72,17.72,8,1,10,0.00
2012-2-12,68.7,55.9,45.9,32.0,32.0,32.0,19,12,9,17.72,17.72,10,2,13,0.00
2012-2-13,66.0,54.3,38.1,32.0,32.0,32.0,35,18,10,17.72,17.72,8,2,8,0.00
2012-2-14,57.4,49.7,39.4,32.0,32.0,32.0,51,27,12,17.72,17.72,11,2,16,0.24
2012-2-15,63.5,47.9,34.0,32.0,32.0,32.0,51,29,9,17.72,17.72,7,1,8,0.00
2012-2-16,64.4,51.9,42.8,32.0,32.0,32.0,38,22,9,17.72,17.72,7,2,10,0.00
2012-2-17,58.5,50.1,42.1,32.0,32.0,32.0,44,34,17,17.72,17.72,4,0,7,0.00
2012-2-18,65.8,48.8,34.3,32.0,32.0,32.0,50,27,9,17.72,17.72,5,0,6,0.00
2012-2-19,67.1,51.4,35.6,32.0,32.0,32.0,40,21,9,17.72,17.72,10,2,10,0.00
2012-2-20,66.7,51.7,36.3,32.0,32.0,32.0,40,19,9,17.72,17.72,8,1,8,0.00
2012-2-21,71.8,51.8,34.3,32.0,32.0,32.0,34,16,9,17.72,17.72,5,0,6,0.00
2012-2-22,74.5,53.1,35.1,32.0,32.0,32.0,31,15,8,17.72,17.72,7,1,8,0.00
2012-2-23,75.6,55.2,35.6,32.0,32.0,32.0,24,12,8,17.72,17.72,7,1,12,0.00
2012-2-24,76.5,57.1,37.9,32.0,32.0,32.0,21,12,8,17.72,17.72,6,1,8,0.00
2012-2-25,77.0,56.5,39.4,32.0,32.0,32.0,23,13,8,17.72,17.72,7,1,11,0.00
2012-2-26,76.8,56.2,37.8,32.0,32.0,32.0,21,12,8,17.72,17.72,10,1,10,0.00
2012-2-27,77.0,59.7,41.7,32.0,32.0,32.0,18,12,8,17.72,17.72,12,4,15,0.00
2012-2-28,62.4,53.2,42.3,32.0,32.0,32.0,16,12,9,17.72,17.72,9,3,13,0.00
2012-2-29,68.7,49.9,33.6,32.0,32.0,32.0,32,16,9,17.72,17.72,8,1,8,0.00
2012-3-1,70.9,53.2,34.3,32.0,32.0,32.0,20,12,9,17.72,17.72,8,2,9,0.00
2012-3-2,63.3,49.1,36.9,32.0,32.0,32.0,17,12,9,17.72,17.72,10,2,15,0.00
2012-3-3,68.2,47.9,29.1,32.0,32.0,32.0,15,12,9,17.72,17.72,6,1,8,0.00
2012-3-4,79.5,55.7,32.2,32.0,32.0,32.0,15,11,7,17.72,17.72,6,1,8,0.00
2012-3-5,84.0,58.3,35.6,32.0,32.0,32.0,17,10,6,17.72,17.72,5,0,6,0.00
2012-3-6,81.5,62.9,38.7,32.0,32.0,32.0,14,10,7,17.72,17.72,12,3,15,0.00
2012-3-7,62.6,55.9,43.3,32.0,32.0,32.0,13,10,9,17.72,17.72,14,5,15,0.00
2012-3-8,66.2,50.1,31.3,32.0,32.0,32.0,15,12,9,17.72,17.72,10,2,11,0.00
2012-3-9,64.2,56.2,49.6,32.0,32.0,32.0,12,10,9,17.72,17.72,14,7,17,0.00
2012-3-10,66.9,55.3,43.0,32.0,32.0,32.0,13,11,9,17.72,17.72,9,3,15,0.00
2012-3-11,73.8,54.3,35.4,32.0,32.0,32.0,20,12,8,17.72,17.72,6,1,6,0.00
2012-3-12,79.5,56.4,35.2,32.0,32.0,32.0,17,11,7,17.72,17.72,5,0,7,0.00
2012-3-13,82.0,58.5,35.4,32.0,32.0,32.0,15,10,7,17.72,17.72,8,1,9,0.00
2012-3-14,80.8,58.8,36.5,32.0,32.0,32.0,14,10,7,17.72,17.72,6,1,8,0.00
2012-3-15,83.8,60.9,38.5,32.0,32.0,32.0,14,10,6,17.72,17.72,6,1,8,0.00
2012-3-16,84.4,61.2,38.8,32.0,32.0,32.0,14,10,6,17.72,17.72,7,1,9,0.00
2012-3-17,81.7,63.6,42.1,32.0,32.0,32.0,13,10,7,17.72,17.72,10,3,15,0.00
2012-3-18,63.7,52.2,43.5,32.0,32.0,32.0,51,24,11,17.72,17.72,14,4,25,0.79
2012-3-19,50.7,44.2,37.0,32.0,32.0,32.0,46,32,14,17.72,17.72,9,2,12,0.36
2012-3-20,61.9,50.5,32.0,32.0,32.0,32.0,53,21,9,17.72,17.72,9,3,13,0.00
2012-3-21,73.2,53.3,34.9,32.0,32.0,32.0,49,23,9,17.72,17.72,9,1,10,0.00
2012-3-22,80.8,59.7,39.7,32.0,32.0,32.0,48,21,7,17.72,17.72,6,1,8,0.00
2012-3-23,84.4,63.9,45.0,32.0,32.0,32.0,40,18,6,17.72,17.72,6,1,9,0.00
2012-3-24,88.3,65.6,44.1,32.0,32.0,32.0,38,16,5,17.72,17.72,7,1,7,0.00
2012-3-25,86.7,66.0,47.8,32.0,32.0,32.0,28,13,6,17.72,17.72,9,2,11,0.00
2012-3-26,77.9,62.9,48.7,32.0,32.0,32.0,30,14,8,17.72,17.72,6,2,9,0.00
2012-3-27,84.4,64.2,44.1,32.0,32.0,32.0,38,16,6,17.72,17.72,7,1,8,0.00
2012-3-28,85.8,65.3,45.3,32.0,32.0,32.0,28,12,6,17.72,17.72,7,1,9,0.00
2012-3-29,84.4,64.5,45.3,32.0,32.0,32.0,25,11,6,27.32,17.72,8,1,10,0.00
2012-3-30,87.4,66.7,46.0,32.0,32.0,32.0,17,10,6,27.32,27.32,6,1,8,0.00
2012-3-31,90.3,69.7,48.2,32.0,32.0,32.0,16,9,5,27.32,27.32,8,1,9,0.00
2012-4-1,77.0,63.3,48.7,32.0,32.0,32.0,14,10,8,27.32,27.05,11,4,15,0.00
2012-4-2,67.3,55.9,41.9,32.0,32.0,32.0,13,11,9,27.23,27.14,14,3,19,0.00
2012-4-3,76.5,57.3,37.0,32.0,32.0,32.0,14,11,8,27.32,27.20,8,2,13,0.00
2012-4-4,83.1,62.4,40.1,32.0,32.0,32.0,16,10,6,27.32,27.17,7,1,9,0.00
2012-4-5,88.7,68.0,45.5,32.0,32.0,32.0,12,9,5,27.23,27.11,9,2,10,0.00
2012-4-6,83.5,65.7,47.7,32.0,32.0,32.0,12,9,6,27.34,27.23,8,2,10,0.00
2012-4-7,89.4,68.0,46.4,32.0,32.0,32.0,12,9,5,27.37,27.26,6,1,9,0.00
2012-4-8,93.6,71.1,47.7,32.0,32.0,32.0,12,8,4,27.40,27.26,7,1,8,0.00
2012-4-9,94.3,73.2,53.2,32.0,32.0,32.0,12,8,4,27.34,27.20,7,1,8,0.00
2012-4-10,92.8,72.0,50.4,32.0,32.0,32.0,13,8,4,27.29,27.14,8,1,8,0.00
2012-4-11,84.2,67.5,52.0,32.0,32.0,32.0,13,10,6,27.32,27.20,11,3,14,0.00
2012-4-12,74.8,62.2,49.1,32.0,32.0,32.0,27,12,8,27.37,27.26,7,2,8,0.00
2012-4-13,79.5,63.6,42.8,32.0,32.0,32.0,18,11,7,27.29,27.05,9,2,12,0.00
2012-4-14,64.8,55.3,44.8,32.0,32.0,32.0,49,19,9,27.32,27.08,10,4,15,0.24
2012-4-15,71.4,55.9,38.8,32.0,32.0,32.0,44,19,9,27.43,27.32,7,2,11,0.00
2012-4-16,82.8,63.2,41.2,32.0,32.0,32.0,41,17,6,27.46,27.32,6,1,8,0.00
2012-4-17,90.7,68.9,45.1,32.0,32.0,32.0,31,12,5,27.37,27.23,6,1,9,0.00
2012-4-18,94.6,70.1,47.3,32.0,32.0,32.0,27,10,4,27.32,27.17,7,1,10,0.00
2012-4-19,91.2,71.3,49.1,32.0,32.0,32.0,14,9,5,27.32,27.17,8,1,10,0.00
2012-4-20,95.7,73.8,52.7,32.0,32.0,32.0,16,8,4,27.32,27.20,7,1,8,0.00
2012-4-21,100.0,78.7,54.3,32.0,32.0,32.0,25,9,3,27.32,27.17,6,1,8,0.00
2012-4-22,101.8,78.1,55.2,32.0,32.0,32.0,20,8,2,27.32,27.14,6,1,8,0.00
2012-4-23,102.2,82.0,61.9,32.0,32.0,32.0,11,7,2,27.29,27.14,9,1,9,0.00
2012-4-24,97.7,77.2,58.1,32.0,32.0,32.0,26,9,3,27.32,27.17,7,1,8,0.00
2012-4-25,97.0,76.3,57.4,32.0,32.0,32.0,19,8,3,27.29,27.17,8,1,9,0.00
2012-4-26,84.6,72.7,59.0,32.0,32.0,32.0,12,9,6,27.29,27.20,11,3,11,0.00
2012-4-27,87.3,69.0,49.5,32.0,32.0,32.0,21,10,6,27.32,27.14,8,2,8,0.00
2012-4-28,91.2,71.2,50.5,32.0,32.0,32.0,26,10,5,27.20,27.02,7,2,8,0.00
2012-4-29,92.3,74.0,55.4,32.0,32.0,32.0,26,10,4,27.23,27.11,6,1,8,0.00
2012-4-30,95.4,75.9,54.3,32.0,32.0,32.0,25,9,4,27.29,27.14,7,2,8,0.00
2012-5-1,94.6,77.6,58.1,32.0,32.0,32.0,17,8,4,27.23,27.08,7,2,8,0.00
2012-5-2,92.8,75.8,55.4,32.0,32.0,32.0,20,8,4,27.23,27.14,8,2,9,0.00
2012-5-3,95.0,77.0,55.0,32.0,32.0,32.0,14,8,4,27.29,27.20,8,1,9,0.00
2012-5-4,97.2,76.4,53.6,32.0,32.0,32.0,13,7,3,27.32,27.20,8,1,9,0.00
2012-5-5,98.1,75.9,53.2,32.0,32.0,32.0,13,8,3,27.29,27.14,9,2,10,0.00
2012-5-6,96.4,76.4,52.0,32.0,32.0,32.0,13,7,4,27.26,27.14,8,2,11,0.00
2012-5-7,92.1,72.8,48.6,32.0,32.0,32.0,12,8,4,27.26,27.11,8,2,9,0.00
2012-5-8,94.1,73.7,49.5,32.0,32.0,32.0,12,8,4,27.20,27.05,11,2,13,0.00
2012-5-9,81.9,70.0,56.1,32.0,32.0,32.0,25,10,7,27.32,27.14,13,5,14,0.00
2012-5-10,91.8,74.3,54.3,32.0,32.0,32.0,34,12,4,27.23,27.08,8,2,13,0.00
2012-5-11,98.6,77.5,55.2,32.0,32.0,32.0,17,8,3,27.29,27.14,8,2,10,0.00
2012-5-12,99.3,77.1,54.1,32.0,32.0,32.0,12,7,3,27.34,27.26,7,1,8,0.00
2012-5-13,102.2,78.1,53.6,32.0,32.0,32.0,13,7,2,27.34,27.20,8,1,9,0.00
2012-5-14,102.6,79.8,56.1,32.0,32.0,32.0,12,7,2,27.29,27.14,8,1,11,0.00
2012-5-15,102.7,86.8,67.1,32.0,32.0,32.0,10,6,2,27.29,27.11,9,3,17,0.00
2012-5-16,106.5,87.2,68.0,32.0,32.0,32.0,10,6,2,27.23,27.08,9,2,13,0.00
2012-5-17,104.7,84.2,61.3,32.0,32.0,32.0,11,6,2,27.23,27.08,8,2,10,0.00
2012-5-18,99.9,82.6,62.6,32.0,32.0,32.0,11,7,3,27.14,27.02,12,3,13,0.00
2012-5-19,98.8,78.6,58.1,32.0,32.0,32.0,12,7,3,27.23,27.14,8,1,9,0.00
2012-5-20,104.0,79.6,55.2,32.0,32.0,32.0,12,7,2,27.26,27.17,6,1,9,0.00
2012-5-21,107.6,83.5,56.7,32.0,32.0,32.0,12,7,2,27.29,27.14,6,1,8,0.00
2012-5-22,107.2,85.1,59.0,32.0,32.0,32.0,12,6,2,27.26,27.08,10,2,14,0.00
2012-5-23,104.4,85.6,61.0,32.0,32.0,32.0,11,6,2,27.14,26.96,12,4,15,0.00
2012-5-24,102.4,85.9,67.5,32.0,32.0,32.0,10,6,2,27.02,26.90,10,3,15,0.00
2012-5-25,99.7,83.6,63.0,32.0,32.0,32.0,11,6,3,27.08,26.99,10,4,15,0.00
2012-5-26,86.5,76.0,61.5,32.0,32.0,32.0,11,8,6,27.23,27.08,10,3,10,0.00
2012-5-27,90.5,71.1,49.1,32.0,32.0,32.0,12,8,5,27.32,27.20,7,1,8,0.00
2012-5-28,97.5,75.0,48.7,32.0,32.0,32.0,11,8,3,27.29,27.17,6,1,8,0.00
2012-5-29,102.0,78.6,51.6,32.0,32.0,32.0,12,7,2,27.32,27.17,8,1,9,0.00
2012-5-30,101.1,79.8,54.7,32.0,32.0,32.0,12,7,2,27.29,27.14,7,2,10,0.00
2012-5-31,104.7,81.9,57.9,32.0,32.0,32.0,12,6,2,27.20,27.02,8,1,9,0.00
2012-6-1,110.3,87.2,60.1,32.0,32.0,32.0,12,6,2,27.17,27.05,7,1,8,0.00
2012-6-2,103.8,86.7,64.0,32.0,32.0,32.0,11,6,2,27.23,27.11,8,2,10,0.00
2012-6-3,106.3,85.7,62.4,32.0,32.0,32.0,11,6,2,27.23,27.14,8,2,11,0.00
2012-6-4,105.3,86.7,63.0,32.0,32.0,32.0,11,6,2,27.26,27.11,7,2,9,0.00
2012-6-5,103.3,85.1,61.3,32.0,32.0,32.0,11,6,2,27.23,27.05,7,2,9,0.00
2012-6-6,107.2,86.7,62.6,32.0,32.0,32.0,11,6,2,27.14,27.02,8,2,13,0.00
2012-6-7,106.3,85.1,60.1,32.0,32.0,32.0,12,6,2,27.20,27.11,8,1,8,0.00
2012-6-8,108.1,86.0,61.0,32.0,32.0,32.0,11,6,2,27.23,27.08,8,2,10,0.00
2012-6-9,106.2,86.1,61.0,32.0,32.0,32.0,11,6,2,27.17,27.02,10,3,14,0.00
2012-6-10,105.3,85.1,61.7,32.0,32.0,32.0,11,6,2,27.20,27.11,8,2,10,0.00
2012-6-11,107.1,87.7,66.2,32.0,32.0,32.0,10,6,2,27.29,27.17,6,1,10,0.00
2012-6-12,109.0,87.2,63.5,32.0,32.0,32.0,11,6,2,27.29,27.11,8,1,8,0.00
2012-6-13,109.2,87.6,63.1,32.0,32.0,32.0,11,6,2,27.17,27.02,6,1,10,0.00
2012-6-14,106.7,87.1,63.0,32.0,32.0,32.0,11,6,2,27.20,27.05,8,2,10,0.00
2012-6-15,106.7,87.9,68.5,32.0,32.0,32.0,10,6,2,27.20,27.05,8,2,11,0.00
2012-6-16,106.3,82.2,64.8,36.0,32.0,32.0,21,7,2,27.26,27.14,12,2,12,0.00
2012-6-17,109.2,88.7,65.7,32.0,32.0,32.0,24,7,2,27.29,27.11,10,2,11,0.00
2012-6-18,108.0,90.3,66.7,32.0,32.0,32.0,10,5,2,27.20,27.05,12,2,13,0.00
2012-6-19,107.4,89.9,68.4,32.0,32.0,32.0,10,6,2,27.14,27.02,8,2,11,0.00
2012-6-20,108.7,87.5,60.4,32.0,32.0,32.0,12,6,2,27.14,27.05,6,1,8,0.00
2012-6-21,110.8,89.4,64.2,32.0,32.0,32.0,11,6,2,27.23,27.08,6,1,8,0.00
2012-6-22,111.6,92.5,70.3,32.0,32.0,32.0,9,5,2,27.20,27.02,9,2,10,0.00
2012-6-23,111.0,93.4,71.8,32.0,32.0,32.0,9,5,2,27.14,27.02,8,2,13,0.00
2012-6-24,108.1,92.4,79.3,32.0,32.0,32.0,11,5,2,27.29,27.14,9,2,10,0.00
2012-6-25,108.5,92.7,76.5,32.0,32.0,32.0,15,5,2,27.32,27.14,7,1,9,0.00
2012-6-26,112.1,92.5,79.3,32.0,32.0,32.0,10,5,2,27.20,27.08,9,1,13,0.00
2012-6-27,112.1,93.4,79.7,32.0,32.0,32.0,7,5,2,27.26,27.11,8,2,13,0.00
2012-6-28,109.0,93.5,77.2,32.0,32.0,32.0,10,5,2,27.34,27.20,9,2,13,0.00
2012-6-29,110.8,95.2,76.3,32.0,32.0,32.0,10,5,2,27.34,27.14,9,2,11,0.00
2012-6-30,108.1,94.0,78.4,32.0,32.0,32.0,13,5,2,27.29,27.08,11,3,13,0.00
2012-7-1,109.8,93.7,77.5,32.0,32.0,32.0,8,5,2,27.20,27.05,8,2,11,0.00
2012-7-2,109.4,91.8,75.9,32.0,32.0,32.0,8,5,2,27.23,27.08,9,2,11,0.00
2012-7-3,99.1,86.0,74.1,55.0,33.9,32.0,50,10,3,27.29,27.14,8,2,12,0.95
2012-7-4,93.2,77.9,71.8,59.0,49.0,32.0,58,39,4,27.29,27.23,8,1,15,0.08
2012-7-5,100.8,84.1,68.9,57.0,39.9,32.0,63,24,2,27.32,27.20,7,2,10,0.00
2012-7-6,101.1,86.8,72.5,48.0,35.7,32.0,40,14,2,27.32,27.20,8,2,11,0.00
2012-7-7,102.0,85.1,74.7,36.0,32.2,32.0,23,10,2,27.29,27.20,7,1,9,0.00
2012-7-8,108.0,88.6,79.5,37.0,32.1,32.0,20,7,2,27.32,27.23,8,1,10,0.00
2012-7-9,109.8,91.0,75.4,41.0,33.3,32.0,27,10,2,27.32,27.17,7,1,11,0.00
2012-7-10,110.3,92.4,79.9,48.0,33.1,32.0,25,8,2,27.29,27.11,6,1,8,2.76
2012-7-11,105.1,92.6,79.7,43.0,32.7,32.0,24,7,2,27.29,27.11,10,3,13,0.00
2012-7-12,107.8,91.8,78.3,45.0,33.7,32.0,30,10,2,27.26,27.11,7,2,8,0.00
2012-7-13,101.1,86.6,77.5,46.0,35.3,32.0,29,14,2,27.34,27.23,7,1,10,0.00
2012-7-14,82.0,77.9,77.4,57.0,53.1,37.0,48,45,21,27.34,27.26,12,1,13,0.00
2012-7-15,86.4,81.1,74.8,55.0,42.7,32.0,48,27,8,27.32,27.17,11,1,11,0.47
2012-7-16,96.1,78.2,71.2,57.0,44.6,32.0,56,33,4,27.29,27.23,3,0,4,0.00
2012-7-17,100.6,92.0,77.5,39.0,32.2,32.0,22,5,2,27.32,27.20,6,2,8,0.00
2012-7-18,104.2,87.3,68.9,41.0,32.7,32.0,33,10,2,27.32,27.17,8,2,12,0.00
2012-7-19,104.9,87.8,73.6,37.0,32.2,32.0,24,7,2,27.32,27.20,8,2,13,0.00
2012-7-20,107.2,87.0,73.9,57.0,38.1,32.0,53,18,2,27.40,27.20,8,1,10,2.73
2012-7-21,75.0,73.7,73.6,59.0,58.8,55.0,62,61,51,27.34,27.26,8,1,11,0.00
2012-7-22,73.6,73.6,73.6,59.0,59.0,59.0,62,62,62,27.34,27.29,8,0,8,0.78
2012-7-23,73.6,73.6,73.6,59.0,59.0,59.0,62,62,62,27.34,27.23,9,1,15,1.34
2012-7-24,73.6,73.6,73.6,59.0,59.0,59.0,62,62,62,27.34,27.26,15,1,15,1.17
2012-7-25,80.2,73.8,73.6,59.0,58.2,32.0,62,61,12,27.34,27.20,8,2,9,0.00
2012-7-26,101.7,92.6,78.8,34.0,32.1,32.0,20,5,2,27.32,27.20,8,2,10,0.00
2012-7-27,105.1,87.8,76.6,46.0,35.7,32.0,33,14,2,27.32,27.14,11,2,17,0.00
2012-7-28,101.8,82.3,75.7,55.0,43.9,32.0,48,28,2,27.34,27.23,8,1,10,0.00
2012-7-29,98.4,79.9,72.0,61.0,50.1,32.0,61,41,3,27.34,27.23,8,1,15,2.21
2012-7-30,98.8,84.2,75.4,61.0,44.9,32.0,61,30,3,27.37,27.23,10,1,10,0.00
2012-7-31,99.3,85.6,72.5,48.0,36.6,32.0,42,16,3,27.40,27.26,5,1,6,0.00
2012-8-1,102.2,87.2,74.1,52.0,36.5,32.0,43,15,2,27.40,27.26,6,1,11,0.00
2012-8-2,103.8,87.6,70.9,45.0,34.4,32.0,35,12,2,27.34,27.17,5,1,8,0.00
2012-8-3,105.6,88.2,71.1,43.0,33.9,32.0,34,11,2,27.29,27.11,6,1,8,0.00
2012-8-4,105.3,89.1,71.1,41.0,33.2,32.0,32,10,2,27.29,27.17,9,1,13,0.00
2012-8-5,107.4,88.8,75.7,57.0,36.6,32.0,52,14,2,27.37,27.23,14,1,14,5.48
2012-8-6,106.7,88.3,73.2,57.0,40.9,32.0,54,22,2,27.40,27.23,6,1,9,0.00
2012-8-7,105.4,90.0,74.3,55.0,37.9,32.0,49,16,2,27.34,27.17,8,2,9,0.00
2012-8-8,109.8,89.6,77.0,57.0,36.5,32.0,49,14,2,27.32,27.17,10,1,14,2.47
2012-8-9,105.3,89.6,75.4,52.0,37.6,32.0,43,16,2,27.32,27.14,7,1,11,0.00
2012-8-10,107.4,90.5,72.3,41.0,33.0,32.0,32,10,2,27.29,27.08,7,1,8,0.00
2012-8-11,104.9,89.2,77.2,41.0,33.1,32.0,25,10,2,27.23,27.14,7,0,8,0.00
2012-8-12,110.7,90.5,71.2,45.0,35.2,32.0,36,13,2,27.23,27.11,5,1,9,0.00
2012-8-13,112.3,93.8,74.7,37.0,32.4,32.0,22,8,2,27.26,27.11,9,2,10,0.00
2012-8-14,109.0,90.6,77.2,54.0,34.8,32.0,41,11,2,27.26,27.08,11,2,11,2.61
2012-8-15,98.1,85.6,74.5,50.0,37.6,32.0,41,17,3,27.29,27.11,8,2,12,0.00
2012-8-16,90.3,82.1,76.5,46.0,38.2,32.0,33,20,7,27.34,27.23,4,0,8,0.00
2012-8-17,94.1,80.2,74.1,61.0,48.9,32.0,58,36,6,27.37,27.29,5,1,8,0.00
2012-8-18,97.0,84.3,73.4,57.0,41.5,32.0,57,25,4,27.32,27.17,7,2,9,0.00
2012-8-19,102.7,86.3,73.9,55.0,38.8,32.0,47,19,2,27.29,27.11,9,1,13,0.00
2012-8-20,102.6,86.7,75.6,61.0,41.5,32.0,57,23,2,27.29,27.14,8,0,10,0.00
2012-8-21,102.9,85.6,76.1,54.0,40.9,32.0,42,22,3,27.29,27.17,8,2,13,0.00
2012-8-22,87.4,78.1,70.7,63.0,48.4,32.0,61,38,8,27.37,27.20,6,0,6,2.76
2012-8-23,75.7,74.6,74.3,64.0,63.9,61.0,68,68,62,27.29,27.20,7,1,8,0.00
2012-8-24,74.3,74.3,74.3,64.0,64.0,64.0,68,68,68,27.29,27.17,7,1,8,0.00
2012-8-25,74.3,74.3,74.3,64.0,64.0,64.0,68,68,68,27.23,27.11,7,1,8,0.00
2012-8-26,102.4,84.8,74.3,64.0,47.2,32.0,68,34,2,27.29,27.17,6,1,10,0.00
2012-8-27,104.2,88.5,77.9,48.0,34.0,32.0,34,11,2,27.32,27.20,8,1,9,0.00
2012-8-28,101.5,87.1,72.7,43.0,33.8,32.0,33,11,2,27.34,27.20,7,2,10,0.00
2012-8-29,103.5,84.5,69.4,36.0,32.0,32.0,22,8,2,27.32,27.11,6,0,8,0.00
2012-8-30,102.0,86.0,73.0,46.0,35.7,32.0,37,14,2,27.26,27.11,8,1,11,0.00
2012-8-31,98.4,89.0,72.9,46.0,35.0,32.0,35,13,3,27.29,27.17,6,1,6,0.00
2012-9-1,102.7,100.1,98.4,32.0,32.0,32.0,3,3,2,27.32,27.17,5,1,8,0.00
2012-9-2,102.7,102.7,102.7,32.0,32.0,32.0,2,2,2,27.29,27.17,8,1,10,0.00
2012-9-3,102.7,78.8,75.9,36.0,34.9,32.0,23,19,2,27.43,27.23,10,2,11,0.00
2012-9-4,93.0,83.3,76.3,41.0,34.3,32.0,28,15,4,27.43,27.26,7,2,11,0.00
2012-9-5,97.0,85.9,75.6,50.0,37.2,32.0,38,17,3,27.34,27.20,9,2,11,0.00
2012-9-6,101.7,81.9,74.7,59.0,45.8,32.0,56,32,2,27.34,27.20,8,1,10,0.16
2012-9-7,91.8,80.4,73.2,63.0,48.2,32.0,63,36,9,27.37,27.26,8,2,13,0.00
2012-9-8,88.3,80.7,75.6,55.0,37.6,32.0,46,19,5,27.34,27.23,10,5,15,0.00
2012-9-9,92.5,80.7,70.3,54.0,35.1,32.0,54,15,4,27.34,27.26,10,3,16,1.02
2012-9-10,94.8,77.1,71.2,54.0,44.1,32.0,49,33,4,27.37,27.23,8,0,8,0.08
2012-9-11,88.3,75.1,70.0,57.0,45.9,32.0,56,37,5,27.34,27.26,9,0,9,0.00
2012-9-12,90.3,78.3,68.7,59.0,43.2,32.0,66,33,5,27.34,27.26,8,1,10,0.00
2012-9-13,96.3,80.0,65.7,50.0,37.1,32.0,51,20,4,27.40,27.26,11,2,15,0.00
2012-9-14,86.7,78.1,71.2,32.0,32.0,32.0,9,8,6,27.46,27.34,11,6,19,0.00
2012-9-15,91.2,77.9,65.7,32.0,32.0,32.0,13,8,5,27.46,27.34,9,3,13,0.00
2012-9-16,95.0,75.5,57.6,32.0,32.0,32.0,30,12,4,27.43,27.29,8,1,9,0.00
2012-9-17,93.4,76.0,57.9,32.0,32.0,32.0,29,12,4,27.37,27.26,7,1,9,0.00
2012-9-18,97.9,79.3,61.9,37.0,32.4,32.0,35,14,3,27.37,27.26,4,0,6,0.00
2012-9-19,100.2,78.9,61.0,32.0,32.0,32.0,26,9,3,27.34,27.23,7,1,9,0.00
2012-9-20,99.3,82.0,67.5,32.0,32.0,32.0,19,7,3,27.34,27.20,7,1,7,0.00
2012-9-21,102.4,82.2,65.7,32.0,32.0,32.0,23,7,2,27.32,27.17,6,1,8,0.00
2012-9-22,102.4,80.6,67.1,32.0,32.0,32.0,17,7,2,27.32,27.23,8,1,10,0.00
2012-9-23,101.1,81.7,64.6,32.0,32.0,32.0,15,7,2,27.34,27.26,6,1,6,0.00
2012-9-24,97.9,79.5,63.5,32.0,32.0,32.0,20,8,3,27.34,27.20,6,1,8,0.00
2012-9-25,96.1,79.1,61.7,32.0,32.0,32.0,24,9,4,27.29,27.14,8,1,12,0.00
2012-9-26,94.6,78.2,64.6,32.0,32.0,32.0,26,9,4,27.26,27.17,6,1,8,0.00
2012-9-27,94.8,77.8,61.5,32.0,32.0,32.0,25,9,4,27.32,27.23,5,1,7,0.00
2012-9-28,90.7,77.4,69.4,32.0,32.0,32.0,22,9,5,27.32,27.20,8,1,8,0.00
2012-9-29,94.5,79.1,65.7,32.0,32.0,32.0,23,9,4,27.37,27.23,6,1,9,0.00
2012-9-30,96.4,78.2,59.4,32.0,32.0,32.0,26,10,4,27.34,27.20,8,1,9,0.00
2012-10-1,97.7,76.3,57.9,32.0,32.0,32.0,14,8,3,27.32,27.20,5,0,6,0.00
2012-10-2,98.4,76.8,57.6,32.0,32.0,32.0,22,8,3,27.29,27.17,7,1,9,0.00
2012-10-3,96.4,76.2,58.1,32.0,32.0,32.0,12,8,4,27.37,27.26,7,1,11,0.00
2012-10-4,94.8,76.0,58.1,32.0,32.0,32.0,14,8,4,27.43,27.32,8,1,13,0.00
2012-10-5,91.0,72.9,54.7,32.0,32.0,32.0,26,10,5,27.40,27.23,6,1,8,0.00
2012-10-6,90.0,72.0,56.3,32.0,32.0,32.0,14,9,5,27.32,27.17,5,1,6,0.00
2012-10-7,89.6,72.0,58.5,32.0,32.0,32.0,25,10,5,27.29,27.17,6,0,8,0.00
2012-10-8,90.3,71.6,55.4,32.0,32.0,32.0,25,10,5,27.32,27.20,6,0,8,0.00
2012-10-9,90.3,71.9,56.1,32.0,32.0,32.0,25,10,5,27.32,27.20,6,0,6,0.00
2012-10-10,88.3,71.4,54.1,32.0,32.0,32.0,20,10,5,27.34,27.17,6,1,8,0.00
2012-10-11,81.9,70.7,59.2,39.0,32.3,32.0,37,13,7,27.26,27.17,4,0,7,0.00
2012-10-12,75.9,67.6,56.3,32.0,32.0,32.0,25,12,8,27.37,27.23,8,2,9,0.00
2012-10-13,78.1,62.3,47.3,32.0,32.0,32.0,33,15,8,27.46,27.32,7,1,9,0.00
2012-10-14,88.2,67.8,46.4,32.0,32.0,32.0,31,13,5,27.40,27.26,6,1,8,0.00
2012-10-15,90.1,70.6,53.6,32.0,32.0,32.0,13,9,5,27.32,27.20,4,0,6,0.00
2012-10-16,88.0,66.9,49.1,32.0,32.0,32.0,14,10,5,27.26,27.14,5,0,8,0.00
2012-10-17,87.8,68.2,50.2,32.0,32.0,32.0,16,10,5,27.29,27.17,6,1,6,0.00
2012-10-18,86.2,71.2,58.1,41.0,32.8,32.0,42,16,6,27.40,27.26,8,1,11,0.00
2012-10-19,88.5,71.4,54.5,32.0,32.0,32.0,37,17,5,27.32,27.14,5,1,6,0.00
2012-10-20,87.8,71.1,54.7,32.0,32.0,32.0,25,11,5,27.23,27.11,6,1,8,0.00
2012-10-21,85.6,69.1,54.3,32.0,32.0,32.0,33,14,6,27.26,27.14,8,1,8,0.00
2012-10-22,83.1,66.0,50.7,32.0,32.0,32.0,28,13,6,27.29,27.20,4,0,5,0.00
2012-10-23,85.1,67.6,50.4,32.0,32.0,32.0,32,14,6,27.26,27.14,4,0,7,0.00
2012-10-24,82.2,67.4,53.2,32.0,32.0,32.0,30,14,7,27.29,27.17,8,1,10,0.00
2012-10-25,79.0,60.9,44.2,32.0,32.0,32.0,18,11,7,27.34,27.23,6,1,8,0.00
2012-10-26,81.3,60.0,41.0,32.0,32.0,32.0,16,10,7,27.34,27.20,6,1,8,0.00
2012-10-27,83.7,67.8,48.6,32.0,32.0,32.0,12,9,6,27.29,27.17,8,2,12,0.00
2012-10-28,86.7,65.5,46.2,32.0,32.0,32.0,20,10,6,27.37,27.26,6,1,6,0.00
2012-10-29,87.1,65.6,47.8,32.0,32.0,32.0,19,10,6,27.43,27.32,6,1,9,0.00
2012-10-30,85.8,64.0,47.1,32.0,32.0,32.0,19,11,6,27.40,27.29,6,1,7,0.00
2012-10-31,85.5,64.1,45.7,32.0,32.0,32.0,20,10,6,27.37,27.23,4,0,5,0.00
2012-11-1,85.1,64.0,45.9,32.0,32.0,32.0,15,10,6,27.34,27.20,5,0,5,0.00
2012-11-2,81.3,62.7,46.4,32.0,32.0,32.0,14,11,7,27.32,27.20,6,0,8,0.00
2012-11-3,81.0,62.6,46.6,32.0,32.0,32.0,29,13,7,27.37,27.29,5,0,6,0.00
2012-11-4,83.7,62.6,45.3,32.0,32.0,32.0,29,13,6,27.43,27.34,6,1,8,0.00
2012-11-5,85.8,62.6,44.6,32.0,32.0,32.0,27,12,6,27.46,27.32,6,0,6,0.00
2012-11-6,86.4,62.9,44.4,32.0,32.0,32.0,18,10,6,27.46,27.32,5,1,8,0.00
2012-11-7,87.1,64.7,45.1,32.0,32.0,32.0,17,10,6,27.40,27.23,6,0,8,0.00
2012-11-8,81.9,66.7,55.2,32.0,32.0,32.0,17,10,7,27.32,27.20,9,1,9,0.00
2012-11-9,77.5,66.5,59.2,50.0,35.6,32.0,64,25,8,27.29,27.08,9,2,15,0.24
2012-11-10,62.8,55.4,49.1,36.0,32.0,32.0,49,18,9,27.37,27.14,10,3,13,0.00
2012-11-11,60.1,47.7,35.4,32.0,32.0,32.0,40,17,9,27.55,27.37,5,1,6,0.00
2012-11-12,68.2,52.0,31.8,32.0,32.0,32.0,36,18,9,27.55,27.37,9,3,13,0.00
2012-11-13,71.6,51.9,34.9,32.0,32.0,32.0,22,12,9,27.46,27.34,6,1,8,0.00
2012-11-14,78.1,55.1,35.8,32.0,32.0,32.0,19,12,8,27.43,27.34,3,0,5,0.00
2012-11-15,75.6,56.1,37.9,32.0,32.0,32.0,29,13,8,27.40,27.34,3,0,3,0.00
2012-11-16,77.0,58.5,47.3,32.0,32.0,32.0,27,12,8,27.34,27.34,5,0,6,0.00
2012-11-17,75.9,60.7,45.9,32.0,32.0,32.0,25,12,8,27.34,27.34,4,0,5,0.00
2012-11-18,75.0,63.1,53.6,34.0,32.0,32.0,41,22,8,27.46,27.34,5,0,5,0.00
2012-11-19,74.5,57.9,45.0,32.0,32.0,32.0,42,23,8,27.52,27.40,5,0,8,0.00
2012-11-20,77.9,57.9,39.7,32.0,32.0,32.0,43,21,8,27.46,27.32,5,0,7,0.00
2012-11-21,78.3,61.2,48.2,32.0,32.0,32.0,32,15,8,27.37,27.29,4,0,5,0.00
2012-11-22,77.4,57.5,41.5,32.0,32.0,32.0,32,17,8,27.43,27.34,5,1,6,0.00
2012-11-23,82.6,62.2,41.2,32.0,32.0,32.0,29,14,6,27.49,27.40,8,2,11,0.00
2012-11-24,80.8,68.0,53.8,32.0,32.0,32.0,13,10,7,27.46,27.29,6,2,7,0.00
2012-11-25,79.0,59.0,43.5,32.0,32.0,32.0,28,13,7,27.32,27.17,7,1,8,0.00
2012-11-26,75.7,54.9,38.7,32.0,32.0,32.0,19,12,8,27.43,27.26,4,0,5,0.00
2012-11-27,79.2,57.2,39.2,32.0,32.0,32.0,23,12,7,27.49,27.34,5,0,8,0.00
2012-11-28,76.5,58.1,42.3,32.0,32.0,32.0,21,12,8,27.49,27.37,4,0,6,0.00
2012-11-29,72.5,54.7,39.9,32.0,32.0,32.0,33,17,9,27.49,27.40,7,1,8,0.00
2012-11-30,73.0,53.9,38.5,32.0,32.0,32.0,33,18,9,27.46,27.34,4,0,6,0.00
2012-12-1,73.0,53.2,37.9,32.0,32.0,32.0,40,21,9,27.43,27.32,5,0,6,0.00
2012-12-2,73.9,53.3,37.2,32.0,32.0,32.0,32,17,8,27.40,27.32,5,0,6,0.00
2012-12-3,71.8,53.8,39.6,32.0,32.0,32.0,32,17,9,27.46,27.34,5,1,6,0.00
2012-12-4,74.1,54.3,39.2,32.0,32.0,32.0,37,20,8,27.52,27.40,4,0,6,0.00
2012-12-5,77.7,55.9,39.9,32.0,32.0,32.0,37,18,8,27.43,27.26,4,0,4,0.00
2012-12-6,74.8,55.0,39.2,32.0,32.0,32.0,29,14,8,27.32,27.14,4,0,5,0.00
2012-12-7,71.6,54.2,40.1,32.0,32.0,32.0,30,16,9,27.26,27.17,6,1,6,0.00
2012-12-8,69.3,51.5,36.9,32.0,32.0,32.0,37,19,9,27.29,27.17,5,0,6,0.00
2012-12-9,67.5,50.3,35.1,32.0,32.0,32.0,35,17,9,27.37,27.26,7,1,8,0.00
2012-12-10,61.3,45.2,32.5,32.0,32.0,32.0,18,13,9,27.40,27.29,6,1,8,0.00
2012-12-11,64.2,41.4,26.1,32.0,32.0,32.0,16,13,9,27.37,27.26,4,0,5,0.00
2012-12-12,69.3,46.4,27.9,32.0,32.0,32.0,16,13,9,27.34,27.23,4,0,6,0.00
2012-12-13,69.3,52.0,34.7,43.0,33.0,32.0,65,21,10,27.26,27.02,9,2,14,0.48
2012-12-14,54.5,49.1,44.4,45.0,33.1,32.0,66,47,28,27.34,27.02,7,1,10,0.68
2012-12-15,58.3,50.6,46.6,36.0,32.4,32.0,55,44,14,27.34,27.23,8,1,11,0.00
2012-12-16,56.3,49.0,37.9,36.0,32.9,32.0,61,39,12,27.43,27.29,7,1,9,0.00
2012-12-17,60.1,43.5,33.3,32.0,32.0,32.0,54,39,12,27.46,27.29,4,0,5,0.00
2012-12-18,66.4,49.4,34.5,32.0,32.0,32.0,58,36,10,27.29,27.05,8,0,12,0.00
2012-12-19,56.5,45.5,33.8,32.0,32.0,32.0,50,29,11,27.55,27.08,14,3,21,0.40
2012-12-20,62.8,46.0,28.2,32.0,32.0,32.0,54,27,9,27.58,27.40,11,3,17,0.00
2012-12-21,68.4,54.3,45.7,32.0,32.0,32.0,25,12,9,27.40,27.32,8,2,10,0.00
2012-12-22,69.1,53.8,44.2,32.0,32.0,32.0,40,21,10,27.40,27.32,5,0,6,0.00
2012-12-23,65.7,49.2,36.9,32.0,32.0,32.0,52,31,10,27.43,27.29,4,0,7,0.00
2012-12-24,62.1,50.8,39.7,32.0,32.0,32.0,49,28,11,27.34,27.23,7,2,10,0.00
2012-12-25,57.6,49.5,42.6,32.0,32.0,32.0,45,23,9,27.37,27.23,5,0,7,0.00
2012-12-26,64.2,48.4,36.7,32.0,32.0,32.0,42,21,9,27.29,27.11,5,0,8,0.00
2012-12-27,54.7,41.5,30.4,32.0,32.0,32.0,44,29,10,27.32,27.14,14,1,14,0.00
2012-12-28,54.9,40.1,28.4,32.0,32.0,32.0,46,30,10,27.43,27.32,4,0,5,0.00
2012-12-29,62.8,43.4,27.7,32.0,32.0,32.0,46,24,9,27.37,27.20,6,0,6,0.00
2012-12-30,59.7,44.5,34.0,32.0,32.0,32.0,52,29,9,27.26,27.08,8,1,8,0.36
2012-12-31,50.0,42.3,32.5,32.0,32.0,32.0,59,44,14,27.46,27.26,8,0,11,0.08
2013-1-1,52.7,38.8,27.9,32.0,32.0,32.0,53,34,11,27.49,27.34,5,0,6,0.00